Terminal Aerodrome Forecast
Issued by NWS Jackson, MS

Home | Current Version | Previous Version | Text Only | Print | Product List | Glossary On
Versions: 1 2 3 4 5 6 7 8 9 10 11 12 13
000
FTUS44 KJAN 182320
TAFGWO
TAF
KGWO 182320Z 1900/1924 31010G29KT P6SM -RA SCT050 OVC070
     FM190300 34016G26KT P6SM BKN035
     FM190800 33010KT P6SM SKC=

USA.gov is the U.S. government's official web portal to all federal, state and local government web resources and services.